Home   Weather   Kitakyushu   Past weeks

Flag for Japan Past Weather in Kitakyushu, Japan — Yesterday and Last 2 Weeks

Now
79 °F

Partly sunny.


Feels Like: 82 °F
Forecast: 74 / 76 °F
Wind: 8 mph from North

Location: Kitakyushu Airport

Current Time: Sep 27, 2016 at 11:05:40 AM

Latest Report: Sep 27, 2016 at 10:00 AM


Visibility: N/A

Pressure: 29.98 "Hg

Humidity: 79%

Dew Point: 72 °F

Location of KitakyushuLocation

Past Weather in Kitakyushu — Graph

°F

Kitakyushu Temperature Yesterday

Maximum temperature yesterday: 79 °F (at 12:00 PM)
Minimum temperature yesterday: 75 °F (at 12:00 AM)
Average temperature yesterday: 77 °F

High & Low Weather Summary for the Past Weeks

 TemperatureHumidityPressure
High82 °F (Sep 13, 2:00 PM)94% (Sep 12, 2:00 PM)30.07 "Hg (Sep 12, 2:00 PM)
Low70 °F (Sep 20, 12:00 AM)57% (Sep 21, 2:00 PM)29.59 "Hg (Sep 20, 5:00 AM)
Average75 °F81%29.91 "Hg
* Reported Sep 12 9:00 AM — Sep 27 9:00 AM, Kitakyushu, Weather by CustomWeather, © 2016

Note: Actual official high and low records may vary slightly from our data, if they occured in-between our weather recording intervals... More about our weather records

Advertising

Kitakyushu Weather History for the Previous 24 Hours

Scroll right to see more
 ConditionsComfort  
Time TempWeatherWind HumidityBarometerVisibility
9:00 AM
Tue, Sep 27
79 °FPartly sunny.8 mph79%29.98 "HgN/A
8:00 AM77 °FPartly sunny.12 mph83%29.98 "HgN/A
7:00 AM77 °FScattered clouds.12 mph89%29.98 "HgN/A
6:00 AM77 °FPassing clouds.12 mph89%29.98 "HgN/A
5:00 AM77 °FPassing clouds.10 mph89%29.95 "HgN/A
4:00 AM77 °FPassing clouds.6 mph89%29.98 "HgN/A
3:00 AM77 °FPassing clouds.8 mph89%29.98 "HgN/A
2:00 AM77 °FPassing clouds.8 mph89%29.98 "HgN/A
1:00 AM77 °FPassing clouds.8 mph89%29.98 "HgN/A
12:00 AM77 °FPassing clouds.9 mph89%30.01 "HgN/A
11:00 PM
Mon, Sep 26
77 °FPassing clouds.10 mph89%30.01 "HgN/A
10:00 PM77 °FPassing clouds.9 mph89%30.01 "HgN/A
9:00 PM79 °FPassing clouds.9 mph84%30.01 "HgN/A
8:00 PM79 °FPartly cloudy.14 mph84%29.98 "HgN/A
7:00 PM79 °FPassing clouds.15 mph84%29.95 "HgN/A
6:00 PM79 °FPartly sunny.16 mph84%29.95 "HgN/A
5:00 PM79 °FBroken clouds.17 mph84%29.95 "HgN/A
4:00 PM79 °FPassing clouds.15 mph84%29.95 "HgN/A
3:00 PM79 °FScattered clouds.13 mph84%29.95 "HgN/A
2:00 PM79 °FScattered clouds.8 mph84%29.95 "HgN/A
1:00 PM79 °FPartly sunny.9 mph84%29.98 "HgN/A
12:00 PM79 °FBroken clouds.8 mph84%30.01 "HgN/A
11:00 AM77 °FBroken clouds.9 mph83%30.01 "HgN/A
Weather by CustomWeather, © 2016

See weather overviewHow to use our weather pages